EWG8A EDDH-EDDS

Flight info

Callsign EWG8A
Flight time 0h 57m
Altitude 35000
Route IDEKO7G/33 IDEKO N850 NIE DCT BERXO DCT SILWE DCT OSBIT P605 TOSTU T726 LBU
Aircraft A319/M-SDE3FGHIRWY/LB1

Departure

Time 2026-05-05 17:00
Airport Hamburg Helmut Schmidt Airport (EDDH)

Arrival

Time 2026-05-05 17:58
Airport Stuttgart Airport (EDDS)
Time Latitude Longitude Altitude Speed Heading
2026-05-05 16:42 53.63247 10.00359 62 ft 0 kts 86°
2026-05-05 16:52 53.63246 10.00346 62 ft 2 kts 86°
2026-05-05 16:52 53.63245 10.00321 62 ft 2 kts 86°
2026-05-05 16:53 53.63244 10.00295 62 ft 2 kts 86°
2026-05-05 16:53 53.63244 10.00270 62 ft 2 kts 113°
2026-05-05 16:53 53.63253 10.00249 62 ft 2 kts 143°
2026-05-05 16:53 53.63265 10.00240 62 ft 0 kts 172°
2026-05-05 16:54 53.63272 10.00239 62 ft 1 kts 178°
2026-05-05 16:54 53.63274 10.00239 62 ft 0 kts 177°
2026-05-05 16:56 53.63272 10.00239 62 ft 1 kts 185°
2026-05-05 16:57 53.63227 10.00129 62 ft 12 kts 234°
2026-05-05 16:57 53.63168 10.00012 62 ft 13 kts 230°
2026-05-05 16:57 53.63106 9.99892 62 ft 12 kts 213°
2026-05-05 16:57 53.63025 9.99931 62 ft 11 kts 153°
2026-05-05 16:58 53.62966 9.99981 62 ft 6 kts 154°
2026-05-05 16:58 53.62944 9.99997 62 ft 3 kts 161°
2026-05-05 16:58 53.62916 9.99982 62 ft 6 kts 235°
2026-05-05 16:58 53.62880 9.99863 62 ft 13 kts 242°
2026-05-05 16:59 53.62855 9.99775 62 ft 4 kts 262°
2026-05-05 16:59 53.62876 9.99737 62 ft 0 kts 334°
2026-05-05 16:59 53.63029 9.99605 62 ft 59 kts 333°
2026-05-05 17:00 53.63607 9.99107 62 ft 125 kts 333°
2026-05-05 17:00 53.64547 9.98298 162 ft 168 kts 335°
2026-05-05 17:00 53.65562 9.97400 841 ft 166 kts 335°
2026-05-05 17:00 53.66551 9.96501 1621 ft 162 kts 337°
2026-05-05 17:01 53.67542 9.95630 2204 ft 165 kts 338°
2026-05-05 17:01 53.68600 9.94727 2573 ft 181 kts 338°
2026-05-05 17:01 53.69782 9.93750 3004 ft 195 kts 338°
2026-05-05 17:01 53.70974 9.92427 3366 ft 221 kts 310°
2026-05-05 17:02 53.71528 9.89958 4024 ft 236 kts 275°
2026-05-05 17:02 53.71232 9.87155 4488 ft 258 kts 252°
2026-05-05 17:02 53.70581 9.84224 5068 ft 274 kts 251°
2026-05-05 17:02 53.69920 9.81220 6001 ft 275 kts 251°
2026-05-05 17:03 53.69289 9.78217 6982 ft 275 kts 252°
2026-05-05 17:03 53.68675 9.75188 7917 ft 275 kts 252°
2026-05-05 17:03 53.68067 9.72133 8807 ft 277 kts 252°
2026-05-05 17:03 53.67458 9.69045 9578 ft 280 kts 252°
2026-05-05 17:04 53.66828 9.65980 10428 ft 282 kts 248°
2026-05-05 17:04 53.65656 9.63283 10869 ft 300 kts 219°
2026-05-05 17:04 53.63701 9.61877 11282 ft 320 kts 189°
2026-05-05 17:04 53.61449 9.62109 12016 ft 327 kts 174°
2026-05-05 17:05 53.59203 9.62631 12765 ft 330 kts 175°
2026-05-05 17:05 53.56901 9.63067 13431 ft 333 kts 176°
2026-05-05 17:05 53.54591 9.63438 14131 ft 336 kts 177°
2026-05-05 17:05 53.52264 9.63776 14850 ft 338 kts 178°
2026-05-05 17:06 53.49923 9.64097 15547 ft 340 kts 178°
2026-05-05 17:06 53.47584 9.64405 16234 ft 342 kts 178°
2026-05-05 17:06 53.45184 9.64718 16904 ft 345 kts 178°
2026-05-05 17:06 53.42794 9.65025 17535 ft 347 kts 178°
2026-05-05 17:07 53.40367 9.65336 18191 ft 350 kts 178°
2026-05-05 17:07 53.37932 9.65651 18820 ft 352 kts 178°
2026-05-05 17:07 53.35493 9.65964 19441 ft 354 kts 179°
2026-05-05 17:07 53.33035 9.66278 20026 ft 357 kts 179°
2026-05-05 17:08 53.30567 9.66564 20606 ft 360 kts 179°
2026-05-05 17:08 53.28072 9.66837 21177 ft 362 kts 179°
2026-05-05 17:08 53.25558 9.67109 21731 ft 364 kts 179°
2026-05-05 17:08 53.23028 9.67383 22271 ft 367 kts 179°
2026-05-05 17:09 53.20461 9.67662 22793 ft 369 kts 180°
2026-05-05 17:09 53.17898 9.67941 23304 ft 372 kts 180°
2026-05-05 17:09 53.15313 9.68227 23821 ft 374 kts 180°
2026-05-05 17:09 53.12735 9.68509 24313 ft 376 kts 180°
2026-05-05 17:10 53.10120 9.68796 24811 ft 378 kts 180°
2026-05-05 17:10 53.07487 9.69083 25293 ft 380 kts 180°
2026-05-05 17:10 53.04852 9.69370 25760 ft 382 kts 180°
2026-05-05 17:10 53.02196 9.69658 26199 ft 385 kts 180°
2026-05-05 17:11 52.99517 9.69950 26608 ft 388 kts 180°
2026-05-05 17:11 52.96829 9.70242 27042 ft 390 kts 180°
2026-05-05 17:11 52.94109 9.70537 27481 ft 391 kts 180°
2026-05-05 17:11 52.91384 9.70832 27916 ft 393 kts 180°
2026-05-05 17:12 52.88662 9.71126 28327 ft 395 kts 180°
2026-05-05 17:12 52.85883 9.71427 28743 ft 397 kts 180°
2026-05-05 17:12 52.83114 9.71726 29168 ft 398 kts 180°
2026-05-05 17:12 52.80344 9.72026 29574 ft 399 kts 180°
2026-05-05 17:13 52.77588 9.72322 29956 ft 401 kts 180°
2026-05-05 17:13 52.74815 9.72621 30329 ft 403 kts 180°
2026-05-05 17:13 52.71985 9.72924 30703 ft 404 kts 181°
2026-05-05 17:13 52.69180 9.73223 31053 ft 406 kts 180°
2026-05-05 17:14 52.66374 9.73521 31438 ft 407 kts 180°
2026-05-05 17:14 52.63556 9.73822 31950 ft 404 kts 180°
2026-05-05 17:14 52.60754 9.74118 32463 ft 402 kts 180°
2026-05-05 17:14 52.58016 9.74404 32945 ft 400 kts 181°
2026-05-05 17:15 52.55228 9.74695 33419 ft 398 kts 180°
2026-05-05 17:15 52.52468 9.74981 33787 ft 398 kts 181°
2026-05-05 17:15 52.49715 9.75267 34112 ft 399 kts 180°
2026-05-05 17:15 52.46923 9.75557 34422 ft 400 kts 180°
2026-05-05 17:16 52.44151 9.75845 34756 ft 400 kts 180°
2026-05-05 17:16 52.41384 9.76134 34851 ft 401 kts 180°
2026-05-05 17:16 52.35848 9.76708 34856 ft 400 kts 180°
2026-05-05 17:17 52.30262 9.77289 34854 ft 400 kts 180°
2026-05-05 17:17 52.24727 9.77859 34845 ft 399 kts 180°
2026-05-05 17:18 52.19188 9.78431 34838 ft 399 kts 180°
2026-05-05 17:18 52.13659 9.78999 34834 ft 400 kts 180°
2026-05-05 17:19 52.08107 9.79568 34832 ft 400 kts 180°
2026-05-05 17:19 52.02550 9.80137 34826 ft 400 kts 179°
2026-05-05 17:20 51.97002 9.80704 34824 ft 399 kts 179°
2026-05-05 17:20 51.91481 9.81269 34822 ft 398 kts 179°
2026-05-05 17:21 51.85939 9.81830 34817 ft 398 kts 179°
2026-05-05 17:22 51.77635 9.82674 34808 ft 397 kts 179°
2026-05-05 17:22 51.72116 9.83224 34801 ft 396 kts 179°
2026-05-05 17:23 51.66626 9.83776 34797 ft 396 kts 179°
2026-05-05 17:23 51.61166 9.84328 34798 ft 396 kts 179°
2026-05-05 17:24 51.55647 9.84880 34799 ft 395 kts 178°
2026-05-05 17:24 51.50153 9.85432 34800 ft 396 kts 178°
2026-05-05 17:25 51.44682 9.85979 34798 ft 397 kts 178°
2026-05-05 17:25 51.39181 9.86524 34791 ft 396 kts 178°
2026-05-05 17:26 51.33709 9.87071 34789 ft 395 kts 177°
2026-05-05 17:26 51.28221 9.87615 34785 ft 395 kts 177°
2026-05-05 17:27 51.22724 9.88026 34784 ft 394 kts 180°
2026-05-05 17:27 51.17253 9.87684 34784 ft 395 kts 183°
2026-05-05 17:28 51.11773 9.87218 34783 ft 394 kts 183°
2026-05-05 17:28 51.06284 9.86751 34723 ft 396 kts 183°
2026-05-05 17:28 51.03537 9.86515 34433 ft 394 kts 183°
2026-05-05 17:29 51.00818 9.86280 34149 ft 392 kts 182°
2026-05-05 17:29 50.98106 9.86044 33862 ft 390 kts 182°
2026-05-05 17:29 50.95416 9.85814 33576 ft 388 kts 182°
2026-05-05 17:29 50.92715 9.85579 33285 ft 388 kts 182°
2026-05-05 17:30 50.90008 9.85344 32998 ft 390 kts 182°
2026-05-05 17:30 50.87295 9.85111 32723 ft 389 kts 182°
2026-05-05 17:30 50.84573 9.84876 32445 ft 390 kts 182°
2026-05-05 17:30 50.81840 9.84642 32154 ft 392 kts 182°
2026-05-05 17:31 50.79128 9.84408 31876 ft 393 kts 182°
2026-05-05 17:31 50.76405 9.84172 31598 ft 395 kts 182°
2026-05-05 17:31 50.73672 9.83935 31317 ft 395 kts 182°
2026-05-05 17:31 50.70919 9.83699 31036 ft 397 kts 182°
2026-05-05 17:32 50.68177 9.83464 30757 ft 395 kts 182°
2026-05-05 17:32 50.65432 9.83228 30485 ft 395 kts 182°
2026-05-05 17:32 50.62686 9.82991 30208 ft 394 kts 182°
2026-05-05 17:32 50.59970 9.82758 29935 ft 394 kts 182°
2026-05-05 17:33 50.57251 9.82527 29662 ft 393 kts 182°
2026-05-05 17:33 50.54517 9.82294 29387 ft 392 kts 182°
2026-05-05 17:33 50.51810 9.82063 29114 ft 391 kts 182°
2026-05-05 17:33 50.49085 9.81830 28839 ft 390 kts 182°
2026-05-05 17:34 50.46392 9.81602 28567 ft 389 kts 182°
2026-05-05 17:34 50.43681 9.81370 28289 ft 387 kts 182°
2026-05-05 17:34 50.40998 9.81145 28016 ft 387 kts 182°
2026-05-05 17:34 50.38329 9.80920 27748 ft 385 kts 182°
2026-05-05 17:35 50.35679 9.80696 27477 ft 384 kts 182°
2026-05-05 17:35 50.33010 9.80469 27202 ft 382 kts 182°
2026-05-05 17:35 50.30329 9.80241 26927 ft 382 kts 182°
2026-05-05 17:35 50.27702 9.80017 26659 ft 381 kts 182°
2026-05-05 17:36 50.25024 9.79792 26384 ft 381 kts 182°
2026-05-05 17:36 50.22400 9.79572 26112 ft 380 kts 182°
2026-05-05 17:36 50.19742 9.79347 25837 ft 379 kts 182°
2026-05-05 17:36 50.17083 9.79124 25565 ft 379 kts 182°
2026-05-05 17:37 50.14483 9.78907 25297 ft 377 kts 182°
2026-05-05 17:37 50.12751 9.78760 25115 ft 376 kts 182°
2026-05-05 17:37 50.09279 9.78470 24764 ft 376 kts 181°
2026-05-05 17:37 50.06673 9.78365 24498 ft 374 kts 179°
2026-05-05 17:38 50.04050 9.78475 24233 ft 372 kts 176°
2026-05-05 17:38 50.01469 9.78645 23970 ft 371 kts 176°
2026-05-05 17:38 49.98903 9.78806 23711 ft 369 kts 176°
2026-05-05 17:38 49.96354 9.78967 23455 ft 368 kts 176°
2026-05-05 17:39 49.93817 9.79128 23201 ft 367 kts 176°
2026-05-05 17:39 49.91265 9.79291 22944 ft 365 kts 176°
2026-05-05 17:39 49.88736 9.79453 22689 ft 363 kts 177°
2026-05-05 17:39 49.86201 9.79617 22270 ft 360 kts 177°
2026-05-05 17:40 49.83785 9.79773 21770 ft 359 kts 177°
2026-05-05 17:40 49.81280 9.79935 21287 ft 358 kts 177°
2026-05-05 17:40 49.78819 9.80092 20831 ft 355 kts 177°
2026-05-05 17:40 49.76355 9.80249 20378 ft 353 kts 177°
2026-05-05 17:41 49.73913 9.80406 19944 ft 351 kts 178°
2026-05-05 17:41 49.71495 9.80560 19503 ft 349 kts 178°
2026-05-05 17:41 49.69059 9.80690 19064 ft 347 kts 178°
2026-05-05 17:41 49.66658 9.80796 18625 ft 345 kts 179°
2026-05-05 17:42 49.64274 9.80901 18187 ft 344 kts 178°
2026-05-05 17:42 49.61908 9.80903 17753 ft 342 kts 185°
2026-05-05 17:42 49.59549 9.80470 17355 ft 339 kts 188°
2026-05-05 17:42 49.57228 9.79942 16951 ft 336 kts 189°
2026-05-05 17:43 49.54908 9.79410 16537 ft 334 kts 189°
2026-05-05 17:43 49.52623 9.78887 16118 ft 332 kts 189°
2026-05-05 17:43 49.50348 9.78378 15713 ft 330 kts 189°
2026-05-05 17:43 49.48092 9.77890 15317 ft 328 kts 189°
2026-05-05 17:44 49.45829 9.77410 14922 ft 326 kts 189°
2026-05-05 17:44 49.43603 9.76947 14541 ft 325 kts 189°
2026-05-05 17:44 49.41385 9.76465 14166 ft 322 kts 192°
2026-05-05 17:44 49.39179 9.75787 13760 ft 320 kts 194°
2026-05-05 17:45 49.36992 9.75058 13364 ft 318 kts 194°
2026-05-05 17:45 49.34841 9.74337 12974 ft 317 kts 194°
2026-05-05 17:45 49.32706 9.73630 12581 ft 315 kts 194°
2026-05-05 17:45 49.30550 9.72918 12186 ft 313 kts 194°
2026-05-05 17:46 49.28439 9.72236 11872 ft 310 kts 194°
2026-05-05 17:46 49.26316 9.71562 11827 ft 311 kts 194°
2026-05-05 17:46 49.24206 9.70894 11822 ft 312 kts 194°
2026-05-05 17:46 49.22106 9.70232 11816 ft 302 kts 194°
2026-05-05 17:47 49.20079 9.69605 11691 ft 292 kts 194°
2026-05-05 17:47 49.18126 9.69009 11515 ft 285 kts 194°
2026-05-05 17:47 49.16211 9.68430 11215 ft 283 kts 194°
2026-05-05 17:47 49.14274 9.67848 10868 ft 282 kts 194°
2026-05-05 17:48 49.12344 9.67270 10530 ft 280 kts 194°
2026-05-05 17:48 49.10445 9.66705 10201 ft 279 kts 194°
2026-05-05 17:48 49.08545 9.66146 9863 ft 279 kts 194°
2026-05-05 17:48 49.06650 9.65598 9523 ft 278 kts 194°
2026-05-05 17:49 49.04745 9.65049 9194 ft 277 kts 194°
2026-05-05 17:49 49.02847 9.64508 8867 ft 276 kts 194°
2026-05-05 17:49 49.00982 9.63984 8546 ft 275 kts 194°
2026-05-05 17:49 48.99097 9.63458 8329 ft 269 kts 194°
2026-05-05 17:50 48.97289 9.62964 8149 ft 263 kts 194°
2026-05-05 17:50 48.95506 9.62477 7866 ft 261 kts 194°
2026-05-05 17:50 48.93705 9.61988 7552 ft 260 kts 194°
2026-05-05 17:50 48.91938 9.61511 7240 ft 260 kts 194°
2026-05-05 17:51 48.90165 9.61035 7024 ft 255 kts 194°
2026-05-05 17:51 48.88447 9.60582 6862 ft 248 kts 194°
2026-05-05 17:51 48.86748 9.60139 6604 ft 246 kts 194°
2026-05-05 17:51 48.85047 9.59695 6312 ft 245 kts 194°
2026-05-05 17:52 48.83364 9.59241 6045 ft 244 kts 194°
2026-05-05 17:52 48.81750 9.58584 5964 ft 238 kts 211°
2026-05-05 17:52 48.80412 9.57204 5834 ft 229 kts 222°
2026-05-05 17:52 48.79201 9.55679 5621 ft 225 kts 224°
2026-05-05 17:53 48.78028 9.54146 5347 ft 224 kts 224°
2026-05-05 17:53 48.76853 9.52596 5066 ft 223 kts 224°
2026-05-05 17:53 48.75716 9.51004 4744 ft 224 kts 229°
2026-05-05 17:53 48.74675 9.49264 4498 ft 221 kts 234°
2026-05-05 17:54 48.73859 9.47301 4215 ft 220 kts 246°
2026-05-05 17:54 48.73307 9.45142 3926 ft 220 kts 254°
2026-05-05 17:54 48.72903 9.42907 3639 ft 221 kts 256°
2026-05-05 17:54 48.72511 9.40675 3349 ft 218 kts 255°
2026-05-05 17:55 48.72107 9.38507 3059 ft 212 kts 255°
2026-05-05 17:55 48.71701 9.36402 2775 ft 204 kts 255°
2026-05-05 17:55 48.71322 9.34443 2527 ft 184 kts 254°
2026-05-05 17:55 48.70984 9.32686 2337 ft 163 kts 254°
2026-05-05 17:56 48.70682 9.31109 2090 ft 150 kts 255°
2026-05-05 17:56 48.70400 9.29635 1883 ft 144 kts 254°
2026-05-05 17:56 48.70108 9.28161 1715 ft 148 kts 254°
2026-05-05 17:56 48.69829 9.26657 1520 ft 148 kts 255°
2026-05-05 17:57 48.69552 9.25193 1332 ft 143 kts 253°
2026-05-05 17:57 48.69285 9.23766 1199 ft 135 kts 253°
2026-05-05 17:57 48.69064 9.22599 1221 ft 97 kts 253°
2026-05-05 17:57 48.68902 9.21748 1240 ft 72 kts 253°
2026-05-05 17:58 48.68786 9.21134 1261 ft 50 kts 254°
2026-05-05 17:58 48.68706 9.20708 1272 ft 34 kts 253°
2026-05-05 17:58 48.68677 9.20430 1279 ft 20 kts 269°
2026-05-05 17:58 48.68694 9.20242 1284 ft 16 kts 284°
2026-05-05 17:59 48.68718 9.20103 1289 ft 11 kts 288°
2026-05-05 17:59 48.68754 9.20010 1291 ft 11 kts 304°
2026-05-05 17:59 48.68760 9.19859 1294 ft 17 kts 258°
2026-05-05 17:59 48.68730 9.19699 1298 ft 13 kts 253°
2026-05-05 18:00 48.68706 9.19572 1302 ft 13 kts 254°
2026-05-05 18:00 48.68673 9.19402 1306 ft 18 kts 254°
2026-05-05 18:00 48.68645 9.19241 1310 ft 14 kts 265°
2026-05-05 18:00 48.68698 9.19151 1312 ft 11 kts 345°
2026-05-05 18:01 48.68765 9.19172 1313 ft 9 kts 54°
2026-05-05 18:01 48.68816 9.19231 1312 ft 9 kts 347°
2026-05-05 18:01 48.68862 9.19211 1314 ft 3 kts 344°
2026-05-05 18:01 48.68864 9.19210 1314 ft 0 kts 344°